QPF
0.00 0.00 0.00 0.00 0.00 0.00 0.00 0.00 0.00 0.00 0.00 0.00 0.00 0.00 0.00 0.00 0.00 0.01 0.01 0.01 0.01 0.01 0.01 0.01 0.01 0.01 0.01 0.01 0.01 0.00 0.00 0.00 0.01 0.01 0.01 0.00 0.00 0.00 0.00 0.00 0.00 0.00 0.00
0.00 0.00 0.00 0.00 0.00 0.00 0.00 0.00 0.00 0.00 0.00 0.00 0.00 0.00 0.00 0.00 0.00 0.00 0.01 0.01 0.01 0.01 0.01 0.01 0.01 0.01 0.01 0.01 0.01 0.01 0.01 0.01 0.01 0.01 0.01 0.01 0.01 0.01 0.00 0.00 0.00 0.00 0.00
0.00 0.00 0.00 0.00 0.00 0.00 0.00 0.00 0.00 0.00 0.00 0.00 0.00 0.00 0.00 0.00 0.00 0.00 0.00 0.01 0.01 0.01 0.01 0.01 0.01 0.02 0.02 0.02 0.02 0.02 0.02 0.02 0.02 0.02 0.02 0.02 0.01 0.01 0.01 0.00 0.00 0.00 0.00
0.00 0.00 0.00 0.00 0.00 0.00 0.00 0.00 0.00 0.00 0.00 0.00 0.00 0.00 0.00 0.00 0.00 0.00 0.00 0.01 0.01 0.01 0.01 0.01 0.01 0.01 0.02 0.02 0.02 0.02 0.02 0.02 0.02 0.02 0.02 0.02 0.02 0.01 0.01 0.00 0.00 0.00 0.00
0.00 0.00 0.00 0.00 0.00 0.00 0.00 0.00 0.00 0.00 0.00 0.00 0.00 0.00 0.00 0.00 0.00 0.00 0.00 0.00 0.01 0.01 0.01 0.01 0.01 0.02 0.02 0.03 0.03 0.03 0.03 0.03 0.03 0.03 0.02 0.02 0.02 0.01 0.01 0.00 0.00 0.00 0.00
0.00 0.00 0.00 0.00 0.00 0.00 0.00 0.00 0.00 0.00 0.00 0.00 0.00 0.00 0.00 0.00 0.00 0.01 0.00 0.00 0.01 0.01 0.02 0.02 0.02 0.03 0.03 0.03 0.03 0.03 0.04 0.03 0.03 0.03 0.03 0.03 0.02 0.02 0.01 0.00 0.00 0.00 0.00
0.00 0.00 0.00 0.00 0.00 0.00 0.00 0.00 0.00 0.00 0.00 0.00 0.00 0.00 0.00 0.00 0.00 0.01 0.01 0.01 0.01 0.02 0.03 0.03 0.04 0.04 0.04 0.05 0.06 0.06 0.06 0.05 0.04 0.04 0.04 0.03 0.02 0.01 0.01 0.00 0.00 0.00 0.00
0.00 0.00 0.00 0.00 0.00 0.00 0.00 0.00 0.00 0.00 0.00 0.00 0.00 0.00 0.00 0.00 0.00 0.01 0.01 0.02 0.02 0.03 0.04 0.04 0.05 0.06 0.07 0.09 0.10 0.10 0.09 0.07 0.06 0.06 0.05 0.03 0.02 0.01 0.00 0.00 0.00 0.00 0.00
0.00 0.00 0.00 0.00 0.00 0.00 0.00 0.00 0.00 0.00 0.00 0.00 0.00 0.00 0.00 0.00 0.01 0.01 0.02 0.02 0.03 0.05 0.06 0.07 0.07 0.09 0.11 0.14 0.15 0.14 0.12 0.10 0.09 0.08 0.06 0.03 0.02 0.01 0.01 0.02 0.02 0.02 0.01
0.00 0.00 0.00 0.00 0.00 0.00 0.00 0.00 0.00 0.00 0.00 0.00 0.00 0.00 0.00 0.00 0.01 0.03 0.04 0.05 0.07 0.09 0.11 0.12 0.13 0.13 0.16 0.19 0.19 0.16 0.14 0.10 0.11 0.11 0.07 0.04 0.02 0.02 0.02 0.03 0.03 0.04 0.03
0.00 0.00 0.00 0.00 0.00 0.00 0.00 0.00 0.00 0.00 0.00 0.00 0.00 0.00 0.00 0.01 0.02 0.05 0.07 0.09 0.11 0.15 0.17 0.18 0.17 0.18 0.20 0.21 0.19 0.16 0.11 0.10 0.13 0.09 0.05 0.03 0.02 0.02 0.02 0.02 0.02 0.03 0.03
0.00 0.00 0.00 0.00 0.00 0.00 0.00 0.00 0.00 0.00 0.00 0.00 0.01 0.01 0.02 0.03 0.05 0.08 0.10 0.12 0.13 0.17 0.17 0.16 0.16 0.18 0.20 0.20 0.19 0.14 0.10 0.13 0.13 0.08 0.05 0.03 0.02 0.02 0.01 0.01 0.01 0.01 0.02
0.00 0.00 0.00 0.00 0.00 0.00 0.00 0.00 0.00 0.00 0.01 0.01 0.01 0.02 0.03 0.04 0.06 0.08 0.11 0.13 0.14 0.14 0.13 0.13 0.14 0.16 0.18 0.18 0.15 0.12 0.12 0.13 0.11 0.07 0.04 0.02 0.02 0.02 0.01 0.01 0.01 0.01 0.01
0.00 0.00 0.00 0.00 0.00 0.00 0.00 0.01 0.01 0.01 0.01 0.02 0.02 0.02 0.03 0.03 0.05 0.07 0.09 0.11 0.13 0.13 0.12 0.13 0.13 0.14 0.14 0.13 0.10 0.10 0.10 0.09 0.07 0.06 0.04 0.03 0.02 0.02 0.02 0.01 0.01 0.01 0.01
0.00 0.00 0.00 0.00 0.01 0.01 0.01 0.01 0.01 0.01 0.01 0.01 0.01 0.01 0.01 0.02 0.02 0.03 0.05 0.06 0.08 0.08 0.09 0.11 0.11 0.10 0.10 0.08 0.07 0.06 0.06 0.06 0.06 0.05 0.04 0.04 0.03 0.02 0.02 0.02 0.01 0.02 0.01
0.00 0.01 0.01 0.01 0.01 0.01 0.01 0.01 0.01 0.01 0.01 0.01 0.01 0.01 0.01 0.01 0.01 0.02 0.03 0.03 0.04 0.05 0.07 0.07 0.05 0.04 0.04 0.04 0.04 0.04 0.04 0.04 0.04 0.04 0.04 0.03 0.03 0.02 0.02 0.02 0.01 0.01 0.01
0.01 0.01 0.01 0.01 0.01 0.01 0.01 0.00 0.01 0.01 0.00 0.00 0.01 0.01 0.01 0.01 0.01 0.02 0.02 0.03 0.04 0.04 0.06 0.04 0.03 0.03 0.03 0.02 0.03 0.03 0.03 0.02 0.02 0.03 0.03 0.03 0.03 0.02 0.02 0.02 0.01 0.01 0.01
0.02 0.01 0.01 0.01 0.00 0.00 0.00 0.00 0.00 0.00 0.00 0.01 0.01 0.01 0.01 0.01 0.01 0.01 0.02 0.03 0.05 0.04 0.03 0.02 0.02 0.02 0.02 0.02 0.02 0.02 0.02 0.02 0.02 0.02 0.02 0.02 0.02 0.02 0.02 0.01 0.01 0.01 0.01
0.02 0.02 0.01 0.01 0.00 0.00 0.00 0.00 0.00 0.00 0.00 0.01 0.01 0.01 0.01 0.01 0.01 0.01 0.02 0.03 0.02 0.02 0.02 0.02 0.02 0.02 0.02 0.01 0.01 0.01 0.01 0.01 0.01 0.01 0.01 0.01 0.01 0.01 0.01 0.01 0.01 0.01 0.01
0.02 0.01 0.01 0.01 0.01 0.01 0.00 0.00 0.00 0.00 0.00 0.00 0.01 0.01 0.01 0.01 0.01 0.01 0.02 0.02 0.01 0.01 0.01 0.01 0.01 0.01 0.01 0.01 0.01 0.01 0.01 0.01 0.01 0.01 0.01 0.01 0.01 0.01 0.01 0.01 0.01 0.01 0.00
0.02 0.01 0.01 0.01 0.01 0.01 0.01 0.00 0.00 0.00 0.00 0.00 0.01 0.01 0.01 0.01 0.01 0.01 0.01 0.01 0.01 0.01 0.01 0.01 0.01 0.01 0.01 0.01 0.01 0.01 0.01 0.01 0.01 0.01 0.01 0.01 0.01 0.01 0.01 0.01 0.01 0.00 0.00
0.01 0.01 0.01 0.01 0.01 0.01 0.00 0.00 0.00 0.00 0.00 0.00 0.00 0.01 0.01 0.01 0.01 0.01 0.01 0.01 0.01 0.01 0.01 0.01 0.01 0.01 0.01 0.01 0.01 0.01 0.01 0.01 0.01 0.01 0.01 0.01 0.01 0.01 0.01 0.01 0.00 0.00 0.00
0.01 0.01 0.01 0.00 0.00 0.00 0.00 0.00 0.00 0.00 0.00 0.00 0.00 0.00 0.00 0.00 0.00 0.00 0.00 0.00 0.00 0.00 0.00 0.00 0.01 0.00 0.00 0.01 0.00 0.00 0.00 0.00 0.00 0.01 0.01 0.01 0.01 0.00 0.00 0.00 0.00 0.00 0.00
0.01 0.00 0.00 0.00 0.00 0.00 0.00 0.00 0.00 0.00 0.00 0.00 0.00 0.00 0.00 0.00 0.00 0.00 0.00 0.00 0.00 0.00 0.00 0.00 0.00 0.00 0.00 0.00 0.00 0.00 0.00 0.00 0.00 0.00 0.00 0.00 0.00 0.00 0.00 0.00 0.00 0.00 0.00
0.00 0.00 0.00 0.00 0.00 0.00 0.00 0.00 0.00 0.00 0.00 0.00 0.00 0.00 0.00 0.00 0.00 0.00 0.00 0.00 0.00 0.00 0.00 0.00 0.00 0.00 0.00 0.00 0.00 0.00 0.00 0.00 0.00 0.00 0.00 0.00 0.00 0.00 0.00 0.00 0.00 0.00 0.00
0.00 0.00 0.00 0.00 0.00 0.00 0.00 0.00 0.00 0.00 0.00 0.00 0.00 0.00 0.00 0.00 0.00 0.00 0.00 0.00 0.00 0.00 0.00 0.00 0.00 0.00 0.00 0.00 0.00 0.00 0.00 0.00 0.00 0.00 0.00 0.00 0.00 0.00 0.00 0.00 0.00 0.00 0.00
MSLP
1013.98 1014.17 1014.34 1014.48 1014.58 1014.67 1014.76 1014.90 1015.09 1015.37 1015.74 1016.18 1016.67 1017.18 1017.67 1018.11 1018.48 1018.78 1019.03 1019.24 1019.46 1019.69 1019.98 1020.33 1020.75 1021.22 1021.72 1022.26 1022.81 1023.36 1023.93 1024.51 1025.12 1025.76 1026.42 1027.10 1027.76 1028.38 1028.93 1029.38 1029.70 1029.89 1029.95
1013.50 1013.69 1013.86 1013.99 1014.09 1014.18 1014.28 1014.42 1014.62 1014.90 1015.26 1015.69 1016.16 1016.65 1017.11 1017.52 1017.88 1018.18 1018.42 1018.64 1018.86 1019.11 1019.39 1019.73 1020.12 1020.56 1021.03 1021.53 1022.05 1022.59 1023.15 1023.74 1024.38 1025.05 1025.75 1026.47 1027.17 1027.81 1028.37 1028.82 1029.13 1029.31 1029.35
1012.84 1013.05 1013.23 1013.38 1013.50 1013.62 1013.75 1013.91 1014.14 1014.43 1014.79 1015.21 1015.65 1016.11 1016.53 1016.92 1017.25 1017.53 1017.76 1017.98 1018.21 1018.46 1018.76 1019.10 1019.49 1019.92 1020.39 1020.88 1021.40 1021.94 1022.52 1023.13 1023.79 1024.49 1025.22 1025.95 1026.66 1027.30 1027.85 1028.27 1028.55 1028.70 1028.72
1012.08 1012.30 1012.50 1012.68 1012.84 1013.00 1013.17 1013.39 1013.65 1013.97 1014.34 1014.75 1015.17 1015.59 1015.98 1016.32 1016.61 1016.86 1017.09 1017.31 1017.54 1017.81 1018.12 1018.48 1018.89 1019.34 1019.82 1020.33 1020.87 1021.43 1022.03 1022.67 1023.35 1024.06 1024.79 1025.52 1026.21 1026.82 1027.33 1027.71 1027.96 1028.08 1028.07
1011.33 1011.54 1011.75 1011.96 1012.16 1012.37 1012.61 1012.88 1013.19 1013.55 1013.94 1014.35 1014.75 1015.13 1015.48 1015.78 1016.03 1016.26 1016.47 1016.68 1016.93 1017.21 1017.55 1017.94 1018.37 1018.85 1019.36 1019.90 1020.46 1021.05 1021.67 1022.32 1023.01 1023.71 1024.43 1025.12 1025.77 1026.34 1026.80 1027.14 1027.35 1027.44 1027.42
1010.72 1010.91 1011.12 1011.33 1011.57 1011.82 1012.11 1012.44 1012.81 1013.21 1013.63 1014.04 1014.44 1014.79 1015.09 1015.35 1015.57 1015.77 1015.96 1016.18 1016.43 1016.74 1017.10 1017.52 1017.99 1018.50 1019.04 1019.60 1020.18 1020.78 1021.40 1022.05 1022.71 1023.39 1024.06 1024.71 1025.30 1025.81 1026.23 1026.53 1026.71 1026.78 1026.77
1010.36 1010.52 1010.70 1010.91 1011.15 1011.44 1011.77 1012.15 1012.57 1013.01 1013.45 1013.87 1014.25 1014.58 1014.86 1015.08 1015.27 1015.44 1015.63 1015.84 1016.11 1016.44 1016.83 1017.27 1017.77 1018.29 1018.85 1019.41 1019.99 1020.57 1021.17 1021.78 1022.41 1023.03 1023.64 1024.22 1024.75 1025.21 1025.58 1025.85 1026.03 1026.11 1026.12
1010.31 1010.42 1010.56 1010.74 1010.98 1011.28 1011.64 1012.05 1012.50 1012.97 1013.43 1013.85 1014.22 1014.53 1014.77 1014.96 1015.13 1015.28 1015.46 1015.68 1015.96 1016.30 1016.71 1017.17 1017.67 1018.20 1018.75 1019.29 1019.84 1020.38 1020.93 1021.47 1022.03 1022.58 1023.12 1023.63 1024.10 1024.51 1024.85 1025.11 1025.30 1025.41 1025.47
1010.54 1010.60 1010.69 1010.83 1011.05 1011.34 1011.70 1012.13 1012.59 1013.07 1013.53 1013.94 1014.29 1014.58 1014.79 1014.96 1015.10 1015.24 1015.41 1015.64 1015.93 1016.28 1016.69 1017.16 1017.65 1018.16 1018.67 1019.17 1019.65 1020.13 1020.60 1021.07 1021.53 1022.00 1022.47 1022.91 1023.33 1023.71 1024.04 1024.31 1024.53 1024.70 1024.83
1010.95 1010.96 1011.00 1011.10 1011.28 1011.56 1011.91 1012.33 1012.79 1013.26 1013.71 1014.10 1014.43 1014.68 1014.86 1015.00 1015.12 1015.25 1015.42 1015.64 1015.93 1016.29 1016.70 1017.15 1017.62 1018.09 1018.54 1018.97 1019.38 1019.78 1020.16 1020.54 1020.92 1021.31 1021.70 1022.10 1022.48 1022.85 1023.18 1023.49 1023.76 1024.00 1024.21
1011.42 1011.37 1011.37 1011.44 1011.59 1011.85 1012.19 1012.60 1013.04 1013.49 1013.91 1014.27 1014.55 1014.77 1014.92 1015.03 1015.13 1015.24 1015.40 1015.62 1015.91 1016.26 1016.66 1017.08 1017.51 1017.93 1018.32 1018.68 1019.00 1019.31 1019.61 1019.90 1020.21 1020.54 1020.88 1021.24 1021.61 1021.98 1022.34 1022.69 1023.03 1023.35 1023.64
1011.81 1011.73 1011.70 1011.74 1011.88 1012.13 1012.46 1012.85 1013.27 1013.69 1014.08 1014.39 1014.63 1014.80 1014.91 1014.99 1015.06 1015.17 1015.32 1015.53 1015.81 1016.15 1016.53 1016.92 1017.30 1017.66 1017.99 1018.28 1018.53 1018.77 1018.99 1019.22 1019.48 1019.76 1020.08 1020.42 1020.80 1021.19 1021.59 1022.00 1022.40 1022.80 1023.18
1012.05 1011.95 1011.91 1011.95 1012.10 1012.34 1012.68 1013.06 1013.47 1013.86 1014.20 1014.47 1014.67 1014.79 1014.85 1014.90 1014.95 1015.04 1015.17 1015.38 1015.65 1015.97 1016.33 1016.69 1017.03 1017.34 1017.61 1017.85 1018.04 1018.22 1018.40 1018.59 1018.82 1019.08 1019.39 1019.75 1020.14 1020.57 1021.01 1021.47 1021.94 1022.41 1022.86
1012.14 1012.03 1012.00 1012.07 1012.24 1012.51 1012.86 1013.25 1013.65 1014.02 1014.32 1014.55 1014.70 1014.77 1014.80 1014.81 1014.84 1014.91 1015.04 1015.24 1015.50 1015.81 1016.14 1016.47 1016.78 1017.05 1017.28 1017.47 1017.63 1017.78 1017.93 1018.11 1018.33 1018.60 1018.93 1019.30 1019.73 1020.19 1020.68 1021.18 1021.70 1022.22 1022.74
1012.15 1012.05 1012.05 1012.16 1012.37 1012.69 1013.07 1013.48 1013.88 1014.23 1014.51 1014.71 1014.81 1014.85 1014.85 1014.84 1014.85 1014.90 1015.03 1015.22 1015.47 1015.76 1016.07 1016.38 1016.66 1016.91 1017.11 1017.28 1017.42 1017.56 1017.71 1017.89 1018.13 1018.41 1018.76 1019.17 1019.62 1020.11 1020.63 1021.17 1021.72 1022.27 1022.82
1012.19 1012.12 1012.17 1012.33 1012.62 1012.99 1013.41 1013.85 1014.26 1014.61 1014.87 1015.04 1015.12 1015.13 1015.10 1015.08 1015.08 1015.13 1015.25 1015.44 1015.69 1015.97 1016.26 1016.55 1016.81 1017.04 1017.22 1017.37 1017.51 1017.65 1017.81 1018.01 1018.26 1018.57 1018.94 1019.36 1019.83 1020.34 1020.87 1021.42 1021.98 1022.54 1023.09
1012.40 1012.37 1012.48 1012.71 1013.06 1013.50 1013.97 1014.44 1014.86 1015.21 1015.46 1015.62 1015.68 1015.68 1015.65 1015.62 1015.62 1015.68 1015.80 1015.99 1016.23 1016.50 1016.78 1017.05 1017.29 1017.49 1017.66 1017.81 1017.94 1018.08 1018.25 1018.46 1018.73 1019.05 1019.43 1019.86 1020.33 1020.82 1021.35 1021.88 1022.42 1022.96 1023.49
1012.85 1012.88 1013.05 1013.36 1013.78 1014.27 1014.79 1015.28 1015.72 1016.07 1016.32 1016.47 1016.53 1016.53 1016.50 1016.49 1016.50 1016.57 1016.71 1016.90 1017.13 1017.39 1017.65 1017.89 1018.11 1018.29 1018.43 1018.56 1018.68 1018.82 1018.99 1019.20 1019.47 1019.79 1020.16 1020.57 1021.02 1021.49 1021.97 1022.47 1022.97 1023.47 1023.95
1013.56 1013.66 1013.90 1014.28 1014.76 1015.29 1015.84 1016.36 1016.80 1017.15 1017.40 1017.55 1017.61 1017.63 1017.63 1017.63 1017.67 1017.77 1017.91 1018.10 1018.33 1018.57 1018.80 1019.01 1019.19 1019.33 1019.45 1019.55 1019.65 1019.77 1019.92 1020.12 1020.37 1020.67 1021.01 1021.39 1021.80 1022.22 1022.65 1023.09 1023.53 1023.97 1024.39
1014.49 1014.66 1014.97 1015.41 1015.93 1016.49 1017.06 1017.57 1018.02 1018.37 1018.61 1018.77 1018.85 1018.89 1018.92 1018.95 1019.02 1019.14 1019.30 1019.49 1019.70 1019.91 1020.11 1020.28 1020.41 1020.50 1020.57 1020.63 1020.70 1020.79 1020.92 1021.09 1021.30 1021.57 1021.87 1022.20 1022.55 1022.91 1023.28 1023.65 1024.02 1024.38 1024.73
1015.53 1015.78 1016.15 1016.63 1017.18 1017.76 1018.31 1018.82 1019.25 1019.59 1019.83 1020.00 1020.10 1020.17 1020.23 1020.30 1020.40 1020.54 1020.71 1020.89 1021.08 1021.26 1021.41 1021.52 1021.59 1021.63 1021.65 1021.66 1021.68 1021.73 1021.81 1021.95 1022.13 1022.35 1022.60 1022.88 1023.17 1023.47 1023.77 1024.07 1024.37 1024.67 1024.95
1016.58 1016.90 1017.32 1017.83 1018.39 1018.95 1019.49 1019.97 1020.38 1020.70 1020.94 1021.11 1021.23 1021.33 1021.42 1021.53 1021.65 1021.81 1021.97 1022.14 1022.30 1022.43 1022.53 1022.57 1022.58 1022.56 1022.51 1022.47 1022.44 1022.45 1022.50 1022.59 1022.73 1022.92 1023.13 1023.36 1023.61 1023.85 1024.09 1024.33 1024.57 1024.81 1025.04
1017.56 1017.93 1018.38 1018.90 1019.45 1019.99 1020.49 1020.93 1021.30 1021.60 1021.82 1022.00 1022.13 1022.25 1022.37 1022.50 1022.64 1022.80 1022.96 1023.10 1023.22 1023.29 1023.32 1023.30 1023.24 1023.15 1023.05 1022.95 1022.89 1022.85 1022.87 1022.94 1023.06 1023.21 1023.40 1023.60 1023.81 1024.02 1024.22 1024.43 1024.63 1024.83 1025.02
1018.41 1018.82 1019.29 1019.80 1020.32 1020.81 1021.27 1021.66 1021.99 1022.25 1022.46 1022.62 1022.76 1022.89 1023.02 1023.16 1023.30 1023.45 1023.58 1023.69 1023.76 1023.77 1023.74 1023.65 1023.53 1023.38 1023.23 1023.09 1022.98 1022.93 1022.92 1022.98 1023.08 1023.23 1023.40 1023.60 1023.80 1024.00 1024.19 1024.38 1024.57 1024.75 1024.93
1019.15 1019.57 1020.04 1020.53 1021.00 1021.45 1021.84 1022.18 1022.45 1022.67 1022.85 1022.99 1023.12 1023.24 1023.37 1023.50 1023.63 1023.75 1023.85 1023.91 1023.92 1023.88 1023.78 1023.63 1023.45 1023.25 1023.06 1022.89 1022.76 1022.69 1022.68 1022.73 1022.84 1022.99 1023.18 1023.38 1023.59 1023.81 1024.01 1024.21 1024.41 1024.61 1024.79
1019.82 1020.24 1020.69 1021.13 1021.55 1021.93 1022.26 1022.53 1022.75 1022.92 1023.05 1023.16 1023.26 1023.36 1023.46 1023.57 1023.66 1023.74 1023.79 1023.80 1023.75 1023.65 1023.50 1023.30 1023.08 1022.85 1022.62 1022.43 1022.30 1022.22 1022.21 1022.27 1022.39 1022.55 1022.76 1022.99 1023.23 1023.47 1023.71 1023.94 1024.17 1024.39 1024.61
Thickness
5655 5653 5649 5646 5642 5638 5634 5630 5625 5619 5613 5607 5600 5593 5587 5582 5576 5570 5564 5557 5550 5544 5537 5530 5523 5516 5509 5501 5495 5489 5481 5473 5458 5445 5437 5427 5416 5406 5397 5389 5382 5375 5367
5646 5643 5641 5637 5634 5630 5627 5623 5617 5612 5606 5600 5592 5585 5579 5573 5567 5562 5557 5551 5544 5537 5530 5522 5515 5506 5498 5492 5484 5477 5470 5463 5451 5435 5424 5413 5403 5395 5386 5378 5370 5363 5356
5637 5634 5632 5629 5626 5623 5620 5615 5609 5604 5598 5591 5584 5578 5571 5565 5559 5554 5549 5544 5538 5532 5525 5517 5509 5499 5490 5482 5474 5465 5457 5449 5441 5427 5413 5402 5391 5381 5372 5365 5358 5351 5344
5627 5624 5622 5621 5619 5615 5611 5606 5601 5595 5589 5582 5576 5569 5562 5556 5550 5545 5539 5534 5528 5522 5516 5509 5500 5492 5484 5473 5463 5454 5445 5434 5424 5414 5400 5388 5378 5368 5359 5351 5345 5339 5333
5617 5614 5613 5611 5608 5604 5600 5595 5591 5585 5580 5573 5566 5559 5552 5545 5540 5534 5528 5523 5518 5511 5504 5497 5490 5482 5473 5463 5454 5443 5432 5420 5408 5398 5386 5374 5363 5353 5346 5339 5332 5326 5321
5606 5604 5602 5598 5594 5591 5587 5583 5578 5574 5568 5562 5555 5548 5541 5535 5529 5524 5518 5512 5506 5500 5492 5484 5475 5467 5458 5449 5440 5431 5422 5409 5396 5385 5373 5363 5353 5343 5334 5325 5318 5311 5307
5591 5589 5585 5582 5580 5577 5574 5570 5566 5560 5555 5549 5543 5536 5530 5524 5518 5512 5506 5500 5494 5488 5480 5471 5461 5453 5443 5433 5424 5414 5404 5395 5387 5376 5364 5353 5341 5331 5321 5312 5305 5299 5294
5575 5572 5569 5567 5564 5562 5558 5555 5551 5545 5540 5534 5528 5521 5515 5509 5504 5499 5492 5486 5480 5473 5466 5458 5448 5438 5428 5419 5408 5397 5387 5378 5370 5360 5350 5339 5328 5317 5308 5300 5292 5285 5281
5558 5556 5553 5550 5548 5545 5541 5538 5534 5528 5523 5517 5512 5505 5499 5494 5488 5483 5477 5470 5463 5456 5449 5441 5432 5422 5413 5404 5394 5383 5371 5361 5352 5344 5334 5324 5313 5303 5294 5285 5276 5268 5265
5537 5537 5535 5533 5531 5528 5524 5520 5515 5510 5505 5499 5493 5487 5482 5476 5471 5466 5461 5453 5445 5437 5429 5421 5413 5405 5396 5388 5379 5368 5357 5347 5336 5327 5319 5310 5301 5292 5282 5274 5265 5256 5250
5515 5515 5513 5512 5510 5507 5503 5499 5495 5489 5483 5477 5471 5466 5461 5456 5452 5448 5443 5435 5428 5418 5410 5402 5394 5387 5379 5372 5364 5354 5345 5333 5322 5313 5304 5296 5288 5280 5271 5263 5254 5245 5237
5492 5491 5489 5488 5486 5483 5480 5476 5471 5466 5460 5453 5448 5443 5439 5435 5432 5429 5424 5418 5410 5400 5392 5384 5377 5370 5363 5355 5347 5339 5329 5319 5310 5301 5292 5285 5277 5270 5262 5253 5243 5234 5224
5469 5467 5466 5464 5462 5459 5456 5452 5447 5443 5437 5431 5426 5421 5417 5414 5411 5408 5404 5399 5392 5383 5375 5368 5361 5354 5347 5339 5332 5323 5314 5305 5297 5289 5282 5276 5268 5259 5250 5239 5229 5219 5209
5446 5445 5444 5441 5439 5436 5433 5430 5426 5421 5416 5411 5407 5402 5397 5393 5391 5388 5384 5379 5374 5366 5359 5352 5345 5338 5331 5323 5315 5308 5299 5292 5284 5277 5270 5261 5253 5244 5234 5225 5214 5203 5191
5426 5424 5423 5420 5417 5413 5410 5407 5404 5401 5398 5393 5388 5384 5379 5375 5372 5370 5365 5360 5355 5348 5341 5333 5327 5320 5313 5306 5299 5291 5283 5276 5268 5261 5254 5245 5236 5227 5218 5208 5197 5186 5174
5405 5403 5402 5399 5395 5392 5388 5385 5383 5380 5377 5373 5370 5366 5361 5358 5355 5352 5347 5342 5337 5331 5323 5316 5309 5303 5296 5289 5282 5275 5267 5260 5253 5245 5237 5229 5220 5210 5200 5190 5180 5168 5158
5385 5383 5380 5378 5375 5372 5368 5365 5361 5357 5355 5351 5348 5345 5342 5339 5336 5332 5328 5323 5318 5313 5305 5298 5292 5285 5278 5272 5265 5258 5250 5243 5235 5228 5220 5211 5202 5192 5182 5171 5161 5150 5140
5364 5361 5359 5356 5355 5352 5349 5345 5341 5337 5332 5326 5324 5322 5321 5318 5315 5311 5308 5303 5296 5290 5284 5278 5271 5265 5259 5253 5246 5239 5231 5224 5216 5208 5200 5191 5182 5172 5162 5152 5142 5132 5122
5341 5339 5337 5335 5332 5329 5326 5323 5319 5314 5310 5304 5299 5297 5295 5294 5291 5287 5283 5278 5272 5265 5260 5254 5249 5243 5237 5231 5225 5218 5211 5204 5196 5187 5179 5170 5161 5152 5142 5132 5123 5113 5103
5318 5318 5316 5313 5310 5307 5303 5300 5296 5292 5286 5281 5275 5272 5271 5269 5263 5258 5254 5250 5246 5240 5235 5230 5225 5220 5214 5208 5202 5196 5189 5181 5173 5165 5157 5148 5139 5131 5121 5112 5103 5093 5084
5297 5294 5293 5291 5287 5284 5280 5277 5273 5269 5263 5258 5253 5253 5251 5243 5238 5234 5229 5225 5221 5216 5212 5207 5202 5197 5191 5185 5179 5173 5166 5158 5150 5142 5134 5125 5117 5108 5100 5092 5083 5074 5066
5277 5274 5270 5267 5264 5261 5258 5255 5251 5246 5241 5235 5231 5228 5228 5221 5216 5212 5207 5202 5197 5193 5189 5185 5180 5174 5168 5162 5155 5149 5141 5134 5126 5118 5111 5103 5094 5086 5078 5071 5063 5056 5048
5257 5253 5249 5246 5243 5240 5237 5233 5229 5225 5220 5215 5211 5207 5203 5199 5195 5191 5186 5181 5176 5172 5167 5162 5157 5151 5145 5138 5132 5125 5118 5110 5103 5096 5088 5080 5072 5065 5057 5051 5044 5038 5032
5237 5234 5230 5226 5223 5220 5216 5212 5208 5204 5200 5196 5192 5188 5184 5179 5175 5170 5166 5161 5156 5151 5146 5140 5134 5127 5121 5114 5107 5101 5094 5087 5080 5073 5066 5059 5052 5045 5038 5032 5027 5022 5017
5216 5214 5211 5207 5204 5200 5197 5193 5189 5185 5182 5178 5174 5170 5165 5160 5155 5151 5146 5141 5136 5130 5124 5117 5111 5104 5097 5090 5083 5077 5070 5064 5057 5051 5044 5038 5032 5027 5021 5016 5011 5007 5003
5197 5195 5192 5188 5185 5182 5178 5175 5171 5167 5164 5160 5155 5151 5146 5141 5136 5131 5126 5121 5114 5108 5101 5095 5088 5081 5074 5068 5061 5055 5049 5043 5037 5031 5025 5020 5014 5010 5006 5002 4998 4994 4991